COSMOS 2158

Satellite information

Favourite Embed

Satellite Type and Status

PAYLOADIN ORBIT

Key statistics

Satellite COSMOS 2158 at a glance.

Uptime

12399

Days in orbit

Revolutions

≈ 12.6

Per day

Orbit

LEO

Low Earth Orbit

Inclination

82.6

Latest

Satellite identification and parameters

Extended collection of information and parameters for COSMOS 2158.

Object identification

Identified? True

Debris? False

Object name: COSMOS 2158

International designator: 1991-068B

Object number (NORAD): 21729

Object ID (CCSDS): 21729

Country: COMMONWEALTH OF INDEPENDENT STATES (CIS)

Current information (Y/N): Y

RCS size: LARGE

Orbital parameters

Period: 113.919 minutes

Inclination: 82.5844 deg

SMA: 7784.369 km

Apoapsis: 1410.351 km

Periapsis: 1402.117 km

RAAN: 131.681 deg

Eccentricy: 0.00052892

Argument of periapsis: 346.1777 deg

Mean anomaly: 23.9412 deg

Mean motion: 12.64059844 rev/day

Mean motion (dot): 0.00000051 rev/day2

B* drag term: 0.00021939003 1/REarth

Two-line elements (TLE)

Creation date: Sept. 8, 2025, 3:16 a.m.

Reference frame: TEME

Reference center: EARTH

Epoch: Sept. 7, 2025, 11:24 p.m. UTC

TLE line 0: 0 COSMOS 2158

TLE line 1: 1 21729U 91068B 25250.97536078 .00000051 00000-0 21939-3 0 9997

TLE line 2: 2 21729 82.5844 131.6810 0005289 346.1777 23.9412 12.64059844566060

Live tracking on map

Real-time ground track for satellite COSMOS 2158.

In-orbit conjunctions

A list of the most updated potential collisions computed for object COSMOS 2158.

Target Orbit TCA Probability of collision Miss distance Type
COSMOS 2491 DEB LEO 2024-09-30 01:06:46 0.000169648 413.0 (m) DEBRIS

Associated space launch

Second generation store-dump military communications satellite

COSMOS 2158 was lifted into orbit during the mission ‘Tsiklon-3 | Strela-3 67 to 72’, on board a Tsiklon-3 space rocket.

The launch took place on Sept. 28, 1991, 7:05 a.m. from 32/2.

For more information about the launch, click the button.

Launch to space Tsiklon-3 | Strela-3 67 to 72
Tsiklon-3 | Strela-3 67 to 72

Agency: N/A

Status: Launch Successful

Launch date: Sept. 28, 1991, 7:05 a.m. UTC

Rocket: Tsiklon-3

Launch pad: 32/2

Location: Plesetsk Cosmodrome, Russian Federation

...

Latest news about this satellite

There are no fresh news available about this satellite. Check back as we update our databases every day.


Newsletter sign-up

Weekly statistics, charts and insights to help you stay on top of the space industry.